Other Public Products
Issued by NWS Grand Forks, ND

Home | Current Version | Previous Version | Graphics & Text | Print | Product List | Glossary On
Versions: 1 2 3 4 5 6 7 8 9 10 11 12 13 14 15 16 17 18 19 20 21 22 23 24 25 26 27 28 29 30 31 32 33 34 35 36 37 38 39 40 41 42 43 44 45 46 47 48 49 50
000
FPUS83 KFGF 231431
OPUFGF
PRAIRIE TO PINES WEATHER ROUNDUP
NATIONAL WEATHER SERVICE EASTERN NORTH DAKOTA/GRAND FORKS ND
900 AM CDT SAT AUG 23 2014

 **SATELLITE DATA USED TO AUGMENT SKY COVER AT AUTOMATED STATIONS**
 *****  WEATHER ACROSS EASTERN NORTH DAKOTA  *****

CITY           SKY/WX    TMP DP  RH WIND       PRES   REMARKS
GRAND FORKS    FOG       60  59  96 N13       30.05R VSB 1/2
GRAND FORKS AF FOG       59  59 100 NE10      30.06S VSB 3/4
GRAND CITY NWS   N/A     45 N/A N/A N6          N/A
BUXTON           N/A     62  62  99 N10         N/A
DEVILS LAKE    CLOUDY    57  52  82 NE17      30.05S
FARGO          CLOUDY    68  67  96 NE6       29.99F
WAHPETON ARPT  CLOUDY    70  64  83 SE6       29.97F
$$

 *****  WEATHER ACROSS CENTRAL AND WESTERN NORTH DAKOTA  *****

CITY           SKY/WX    TMP DP  RH WIND       PRES   REMARKS
JAMESTOWN      CLOUDY    61  60  97 NE13      30.01F FOG
BISMARCK       LGT RAIN  61  59  93 E12       30.02S
MINOT          CLOUDY    57  53  86 NE13      30.07F
MINOT AFB      CLOUDY    57  57  99 NE13      30.08F
GARRISON         N/A     57  55  93 E13G21    30.04F
WILLISTON      LGT RAIN  57  52  83 NE16G22   30.07S
DICKINSON      LGT RAIN  58  57  97 E20       29.98S
HETTINGER      LGT RAIN  60  58  92 E18G29    29.95F
$$

 *****  OTHER OBSERVATIONS NORTHEAST NORTH DAKOTA  *****

CITY           SKY/WX    TMP DP  RH WIND       PRES   REMARKS
WALHALLA         N/A     57  57 100 N12       30.10S FOG
LANGDON        CLOUDY    57  55  94 NE14G22   30.09F FOG
CAVALIER       CLOUDY    57  57 100 N8        30.09S
GRAFTON        NOT AVBL
CANDO          CLOUDY    57  55  94 NE12G18   30.09S
FORT TOTTEN    NOT AVBL
ROLLA          FAIR      54  54 100 NE13G20   30.12F FOG
RUGBY          CLOUDY    55  55 100 NE14      30.08F
 ***** THE ABOVE OBSERVATIONS ARE NON NWS ARE NOT QUALITY
        CONTROLLED AND MAY MIS-REPORT RAIN FOR SNOW...
$$

 *****  OTHER OBSERVATIONS SOUTHEAST NORTH DAKOTA *****

CITY           SKY/WX    TMP DP  RH WIND       PRES   REMARKS
COOPERSTOWN    NOT AVBL
VALLEY CITY    FOG       59  59 100 NE10G18   30.01F VSB 1/2
OAKES          LGT RAIN  63  63 100 NE13G20   29.97S
GWINNER        CLOUDY    64  64 100 NE10      29.98F VSB 1
BUFFALO          N/A     62  60  92 NE12        N/A
WYNDMERE       NOT AVBL
 ***** THE ABOVE OBSERVATIONS ARE NON NWS ARE NOT QUALITY
       CONTROLLED AND MAY MIS-REPORT RAIN FOR SNOW...
$$

  *****  WEATHER ACROSS NORTHERN MINNESOTA  *****

CITY           SKY/WX    TMP DP  RH WIND       PRES   REMARKS
FLAG ISLAND    MOSUNNY   70  64  83 NE5       30.07S
WARROAD        CLOUDY    66  63  88 N8        30.08S
ROSEAU         CLOUDY    64  61  88 NE7       30.08S
HALLOCK        CLOUDY    61  57  88 N9        30.06F
THF RVR FALLS  CLOUDY    64  64 100 NE8       30.05S
HALSTAD          N/A     68  66  93 NE8         N/A
FOSSTON        CLOUDY    70  66  88 CALM      30.04F
BAUDETTE       CLOUDY    66  65  96 E6        30.07S
WASKISH        CLOUDY    66  66 100 CALM      30.07R
CROOKSTON      CLOUDY    64  64 100 NE6       30.04S FOG
$$
  *****  WEATHER ACROSS CENTRAL AND WEST MINNESOTA  *****

CITY           SKY/WX    TMP DP  RH WIND       PRES   REMARKS
BEMIDJI        CLOUDY    67  66  97 E6        30.04F
PARK RAPIDS    CLOUDY    67  65  93 E6        30.03F
WADENA         CLOUDY    66  64  94 E7        30.02S
DETROIT LAKES  CLOUDY    68  64  88 SE6       30.03S
MOORHEAD       CLOUDY    70  70 100 NE5       30.00S
FERGUS FALLS   CLOUDY    70  66  88 E7        29.98S
ELBOW LAKE     PTSUNNY   69  66  90 NE7       29.98S
MORRIS MN      LGT RAIN  70  68  94 E10       29.96S
STAPLES        CLOUDY    64  63  94 E8        30.02F
WHEATON        CLOUDY    66  66 100 E8        29.97F
$$
  *****  WEATHER ELSEWHERE ACROSS MINNESOTA  *****

CITY           SKY/WX    TMP DP  RH WIND       PRES   REMARKS
DULUTH         CLOUDY    65  61  87 E8        30.07S
INTRNTL FALLS  CLOUDY    65  64  97 E9        30.07S
ELY            PTSUNNY   68  61  77 NE6       30.08F
CLOQUET        CLOUDY    64  61  88 E9        30.06S
BRAINERD       CLOUDY    63  61  93 E6        30.05S
HIBBING        CLOUDY    68  62  81 E6        30.08S
ALEXANDRIA     CLOUDY    67  64  90 E13       30.00F
SAINT CLOUD    CLOUDY    65  63  93 NE8       30.01F FOG
MINNEAPOLIS    CLOUDY    70  67  90 E9        30.00S
$$

  *****  WEATHER ACROSS SOUTH DAKOTA  *****

CITY           SKY/WX    TMP DP  RH WIND       PRES   REMARKS
SIOUX FALLS    CLOUDY    71  68  90 E10       29.91R
BROOKINGS      NOT AVBL
WATERTOWN      CLOUDY    68  66  93 E12G20    29.90F
HURON          CLOUDY    71  67  87 SE8       29.88R
SISSETON         N/A     69  69 100 E8        29.95F
ABERDEEN       LGT RAIN  64  64 100 NE14      29.92F
MITCHELL       LGT RAIN  70  68  93 SE8       29.89R
PIERRE         CLOUDY    68  68 100 E12       29.82F
MOBRIDGE       LGT RAIN  63  62  97 E18G25    29.89F
RAPID CITY     CLOUDY    65  62  90 NE7       29.88F
$$

  *****  SOME WEATHER IN NEARBY STATES *****

CITY           SKY/WX    TMP DP  RH WIND       PRES   REMARKS
GLASGOW MT     LGT RAIN  55  53  93 NE24G37   30.01S
GREAT FALLS MT HVY RAIN  48  48 100 NW15      30.09S FOG
CHEYENNE WY    CLOUDY    58  54  86 W6        30.00F
SCOTTSBLUFF NE PTSUNNY   64  62  93 S6        29.91F
OMAHA NE       CLOUDY    74  69  85 SE10      29.87F
DES MOINES IA  LGT RAIN  73  70  90 SE7       29.91F
DAVENPORT IA   HVY RAIN  76  74  93 SW5       29.99R VSB 3/4
CHICAGO IL     PTSUNNY   78  74  87 CALM      29.99S FOG
EAU CLAIRE WI  CLOUDY    69  68  96 N6        30.01R
LA CROSSE WI   CLOUDY    75  71  87 CALM      29.98R
$$

  *****  SOME NATIONAL WEATHER *****

CITY           SKY/WX    TMP DP  RH WIND       PRES   REMARKS
LA GUARDIA NY  PTSUNNY   70  60  70 NE12      30.09R
RALEIGH NC     PTSUNNY   79  70  74 SE5       29.98R
ATLANTA GA     MOSUNNY   83  71  67 NW9       30.04S
NEW ORLEANS LA MOSUNNY   86  76  71 N9        30.04S HX  96
OKLAHOMA CITY  SUNNY     79  63  57 S10       29.98R
ALBUQUERQUE NM MOSUNNY   62  56  80 CALM      30.19R
SALT LAKE CITY PTSUNNY   55  49  80 E7        30.04R
LOS ANGELES CA PTCLDY    67  60  78 VRB6      29.96R
BOISE ID       SUNNY     52  43  71 SE3       30.04R
SEATTLE WA     PTCLDY    58  53  84 S5        30.15R
$$

*** WEATHER ACROSS MANITOBA...SASKATCHEWAN AND ONTARIO ***
                ***ONTARIO***

CITY           SKY/WX    TMP DP  RH WIND       PRES   REMARKS
GERALDTON      MOSUNNY   72  64  78 E3        30.13R
THUNDER BAY    PTSUNNY   68  63  83 E6        30.10S
SIOUX LOOKOUT  CLOUDY    64  63  94 NE6       30.13R
TORONTO        CLOUDY    68  64  88 E7        30.08S
BIG TROUT LK   LGT RAIN  45  43  93 NE8G20    30.29F
PICKLE LAKE    LGT RAIN  55  54  94 NE8       30.18R
DRYDEN         CLOUDY    66  64  94 NE6       30.11S
KENORA         PTSUNNY   66  64  94 E8        30.11R
$$
                *** MANITOBA***

CITY           SKY/WX    TMP DP  RH WIND       PRES   REMARKS
BRANDON        CLOUDY    55  54  94 NE18      30.16F FOG
DAUPHIN        LGT RAIN  55  54  94 NE13      30.23S FOG
ISLAND LAKE    CLOUDY    45  41  87 E10       30.36S
PILOT MOUND      N/A     55  54  94 NE12        N/A
THE PAS        CLOUDY    52  43  71 E9G18     30.38R
THOMPSON       PTSUNNY   48  41  76 E10       30.47R
WINNIPEG       DRZL/FOG  57  57 100 N12       30.13S VSB 1/2
LYNN LAKE      CLOUDY    50  46  87 MISG      30.47R
CHURCHILL      PTSUNNY   48  36  61 N12       30.50R
GILLAM         MOSUNNY   48  41  76 NE15G23   30.47R
$$
                ***SASKATCHEWAN***

CITY           SKY/WX    TMP DP  RH WIND       PRES   REMARKS
ESTEVAN        DRIZZLE   54  52  94 NE13      30.14S FOG
KINDERSLEY     CLOUDY    52  50  93 NE9       30.28R
LLOYDMINSTER   PTSUNNY   50  45  81 N5        30.33S
PRINCE ALBERT  CLOUDY    55  52  88 E8        30.33
REGINA         CLOUDY    54  48  82 NE17      30.21S
YORKTON        CLOUDY    54  52  94 NE15      30.25F


USA.gov is the U.S. government's official web portal to all federal, state and local government web resources and services.